TIROS N 1 11060U 78096A 10067.75740650 +.00000004 +00000-0 +24457-4 0 04272 2 11060 098.9660 045.0720 0010858 346.9813 013.1080 14.17497337836435 NOAA 6 1 11416U 79057A 10065.15127049 .00000054 00000-0 36044-4 0 1826 2 11416 098.4032 076.9621 0009793 202.2328 157.8434 14.31962820599202 NOAA 9 1 15427U 84123A 10065.42510997 .00000038 00000-0 40697-4 0 460 2 15427 098.4639 054.5294 0015238 027.0136 333.1828 14.15343944302053 NOAA 10 1 16969U 86073A 10065.32130922 .00000077 00000-0 49445-4 0 9814 2 16969 098.6689 095.2051 0012802 148.4205 211.7758 14.27408810220907 NOAA 11 1 19531U 88089A 10065.35027120 -.00000007 00000-0 18792-4 0 9960 2 19531 098.7685 156.1267 0012321 080.8334 279.4224 14.14917051106591 NOAA 12 1 21263U 91032A 10065.46116431 .00000046 00000-0 38064-4 0 4807 2 21263 098.7697 078.6164 0013293 103.9078 256.3580 14.25619878977766 NOAA 14 1 23455U 94089A 10065.45244716 .00000030 00000-0 39256-4 0 9727 2 23455 098.8837 146.8932 0009604 162.3226 197.8282 14.13780433782983 NOAA 15 1 25338U 98030A 10065.20541645 .00000198 00000-0 10354-3 0 2919 2 25338 098.6127 054.0170 0010964 020.1387 340.0246 14.24810947614082 NOAA 16 1 26536U 00055A 10065.16466392 .00000252 00000-0 16130-3 0 7688 2 26536 099.1758 080.1781 0009762 266.0935 093.9165 14.12549302487286 NOAA 17 1 27453U 02032A 10065.28004961 -.00000099 00000-0 -24809-4 0 7748 2 27453 098.4444 119.8053 0012691 079.8237 280.4387 14.24135730400059 NOAA 18 1 28654U 05018A 10065.29199991 -.00000117 00000-0 -39878-4 0 2599 2 28654 098.9411 011.9070 0014301 347.5810 012.5010 14.11332505246921 NOAA 19 1 33591U 09005A 10065.32854554 .00000361 00000-0 22451-3 0 4603 2 33591 098.7788 009.6855 0013531 218.1336 141.8884 14.11031813 55401